STARLINK-36629, 67596

Orbit data source: Space-Track

STARLINK-36629, 67596 is a payload satellite owned by SpaceX/Seattle (US) in SSO that was launched on Thu, 29 Jan 2026 UTC via an FALCON 9 launch vehicle from the Air Force Western Test Range (AFWTR). Payload-class satellites include a variety of spacecraft equipped with specific instruments for various scientific and technological missions. These include communications satellites like Starlink; space stations such as the ISS; scientific satellites like the Hubble; Earth observation satellites from companies like Planet Labs, Umbra, and HawkEye 360; GPS; miniature CubeSats for education and research; and military/defense satellites.

Loading next visibility...
Identifier
67596, 2026-018H
Orbit
SSO
Country
Flag of USUS
Related business
Manufacturer
SpaceX/Seattle
Mission
Operational Commercial Communications
Bus & Motor
STARLINK V2MO, Unknown motor
Mass
575 kg wet, ~530 kg dry
Launch date (UTC)
2026-01-29 (5 months ago)
Launch vehicle
FALCON 9
Launch site
Air Force Western Test Range (AFWTR)
Object type
Payload
Rocket body
Debris
Shape & HBR
Box + 2 Pan, 17.7 m
Radar Cross Section
36.964 m², Large (>1 m²)

Expand to show TLE details & history
Last TLE update: 1 day ago

TLE from 1 day ago
0 STARLINK-36629
1 67596U 26018H   26170.87848080  .00014974  00000-0  46507-3 0  9999
2 67596  97.2836 235.6213 0000884  95.1786 264.9558 15.33455069 22990
Epoch: 2026-06-19T21:05Z
TLE epoch observation values (Epoch: 2026-06-19T21:05:00.741Z)
Latitude
0.00003°
Longitude
11.26707°
Altitude
468.679 km
Speed
7.632 km/s
True Right ascension
15h 42m 29s
True Declination
0° 00' 00"
Sunlit
Object was in full shadow at epoch
Visualization orbit readout
Latitude
Unknown
Longitude
Unknown
Altitude
Unknown
Speed
Unknown
Apparent Right ascension
Unknown
Apparent Declination
Unknown
Sunlit
N/A
Visualization observer readout
Local Sidereal Time
08:33:33
Azimuth
Unknown
Elevation
Unknown
Doppler factor
Unknown
Orbital elements
Apogee altitude
463.061 km
Perigee altitude
461.851 km
Semi-major axis
6,840.593 km
Eccentricity
0.00009
Inclination
97.2836°
RAAN
235.6213°
Arg. of periapsis
95.1786°
True anomaly
264.94571°
Mean anomaly
264.9558°
Eccentric anomaly
264.95075°
Mean motion
3.83621 °/min
Orbital period
93.84 mins
BSTAR
0.00046507
Loading maneuver chart data...
Computing Atmospheric mass density...
Loading historical data...
Loading historical data...
Loading historical data...
Loading historical data...
Loading historical data...
Loading historical data...
Loading historical data...

Documentation

Showing up to 5 results
|